Temp
56 56 56 56 56 56 56 56 56 56 56 57 57 58 57 56 54 61 58 63 61 61 59 58 59 56 58 60 58 56 53 51 49 38 35 39 39 50 48 53 49 50 49 51 52 50 49 61 65 61 63 67 66 68
56 56 56 55 56 55 55 56 56 55 56 57 57 57 57 56 55 56 57 61 64 60 61 63 64 65 63 62 62 61 57 52 49 39 36 39 39 47 46 38 57 49 57 56 57 57 55 57 58 66 67 66 69 69
56 56 55 55 55 54 56 56 55 55 56 56 57 57 57 56 55 56 59 63 63 60 61 61 60 67 69 67 69 57 58 55 44 42 38 37 35 41 36 43 48 57 62 56 57 58 51 54 59 65 70 71 72 73
55 55 55 55 55 54 55 55 55 55 55 56 56 56 56 55 54 55 65 65 63 62 57 60 68 63 69 69 66 66 62 60 49 43 38 37 38 42 40 43 42 44 55 53 52 51 52 54 56 58 67 71 72 72
55 55 54 55 54 55 55 55 55 55 55 56 56 56 56 55 54 61 62 65 65 58 55 63 66 68 69 67 64 63 61 57 47 41 36 36 40 38 40 41 38 42 46 43 43 46 46 50 56 60 63 66 66 70
54 54 54 54 54 55 55 55 55 55 55 56 55 55 55 54 53 58 50 63 66 65 55 57 65 63 66 66 64 61 62 59 48 45 43 43 44 38 35 37 41 45 49 49 47 50 50 55 58 60 60 66 68 65
54 54 55 54 55 55 55 55 54 55 55 55 54 54 54 53 60 54 52 58 59 64 53 56 59 64 65 65 66 64 62 62 54 53 47 44 42 43 37 34 40 45 48 49 50 51 49 53 53 60 61 65 65 68
54 54 54 54 55 55 54 54 54 54 54 54 54 53 53 53 54 54 57 54 59 55 53 51 58 59 66 64 58 69 63 62 61 58 52 46 45 43 35 40 44 46 49 49 49 53 52 55 57 57 58 59 61 64
54 54 54 55 55 54 54 54 54 54 54 53 53 53 58 55 52 54 56 55 58 54 47 53 47 54 68 65 65 63 65 51 64 57 53 54 45 35 39 43 44 46 44 46 48 51 52 52 54 55 56 55 55 57
53 53 54 54 54 54 53 54 54 53 53 53 57 55 50 54 56 55 51 48 49 50 53 46 62 54 62 64 61 60 61 55 45 54 61 50 39 47 49 51 51 49 47 48 48 46 49 49 51 52 53 55 54 55
53 54 54 54 54 53 54 54 53 52 53 57 53 50 50 55 51 50 44 43 44 42 49 53 57 56 63 55 57 60 56 57 43 49 52 49 41 47 55 55 56 56 52 51 50 49 51 51 51 52 54 57 57 55
54 54 54 54 54 53 53 53 53 58 62 57 57 53 51 47 46 43 42 44 42 44 51 48 52 60 60 61 55 56 50 51 39 56 48 40 49 52 55 56 58 59 58 55 52 50 50 50 52 53 54 55 58 56
54 54 53 53 53 54 53 53 54 53 56 58 51 47 46 47 38 39 38 39 41 48 47 54 49 59 59 60 58 53 46 43 55 40 42 49 53 53 55 56 58 60 60 60 59 56 53 51 51 51 53 58 60 60
54 53 53 53 53 53 53 53 53 55 53 49 47 37 43 45 47 53 54 56 58 55 50 49 51 51 51 48 53 43 47 49 39 35 36 51 53 54 54 56 57 57 59 59 59 60 60 59 58 57 54 54 53 54
53 53 53 53 54 53 53 54 53 56 53 49 51 44 51 59 64 63 62 62 58 57 55 48 44 45 44 44 49 47 41 36 37 36 46 53 55 55 55 55 56 56 58 59 60 60 60 60 60 59 61 61 61 60
53 53 55 53 53 53 53 53 53 53 52 51 52 52 61 60 60 61 62 56 56 51 52 46 42 42 41 43 44 41 38 35 44 49 55 57 55 56 58 58 58 57 56 57 59 59 60 59 59 59 61 62 61 60
52 59 53 53 53 52 53 55 51 49 50 51 52 61 62 65 62 63 62 60 58 50 45 44 39 39 45 44 43 47 40 48 55 56 59 57 56 57 58 59 59 56 57 56 57 57 58 60 61 62 58 59 62 61
62 55 53 52 54 53 56 55 51 51 49 55 52 53 55 65 62 62 62 63 56 55 56 53 56 49 45 40 42 50 54 54 58 58 58 58 57 58 59 58 56 56 56 58 58 59 58 58 58 59 59 61 62 63
57 56 52 53 56 55 51 50 50 48 52 49 49 49 57 57 56 58 59 56 59 64 62 59 50 46 47 51 52 55 58 58 56 57 56 57 57 56 55 58 58 57 57 57 58 59 60 58 59 61 62 63 61 62
53 53 53 54 54 53 51 51 53 49 46 48 48 45 47 49 51 53 55 57 58 57 51 48 47 50 53 55 58 57 58 59 59 56 55 57 59 57 57 58 59 58 61 59 61 52 61 62 63 62 62 60 60 60
53 54 53 55 58 57 49 50 51 55 50 46 48 48 47 48 46 46 48 56 52 49 49 53 54 55 57 57 59 60 57 59 57 56 54 53 57 58 58 60 60 61 60 60 60 58 57 58 61 62 62 61 61 61
54 54 53 53 51 49 49 55 52 57 54 50 49 49 43 40 39 41 47 48 43 51 54 55 55 57 56 55 57 59 58 59 59 57 52 54 59 58 58 59 59 58 59 59 59 59 60 61 60 62 61 61 59 61
54 53 51 51 50 48 51 62 55 56 52 52 54 47 43 41 42 49 40 44 46 54 60 58 57 58 58 59 60 60 61 60 61 61 61 61 61 61 62 61 61 59 59 59 61 61 60 52 58 60 62 63 62 60
52 52 52 56 57 51 61 57 63 60 57 56 53 47 44 49 53 45 36 41 50 59 58 55 60 60 60 59 61 60 62 64 63 62 64 64 61 58 62 62 63 62 61 61 61 60 61 61 52 61 61 60 59 58
48 50 54 39 63 58 56 56 56 58 52 53 50 45 46 55 45 40 36 40 48 53 57 59 62 62 61 61 62 61 61 64 62 60 61 63 62 62 62 60 59 60 63 58 55 56 55 56 57 57 58 58 58 58
42 55 48 57 59 56 58 52 53 54 56 51 49 54 57 53 45 41 42 45 52 55 57 60 59 61 60 61 61 61 60 64 64 61 60 63 62 59 55 53 53 56 61 60 56 55 55 56 56 55 56 56 48 55
48 55 59 64 62 62 58 60 62 57 51 51 54 53 53 45 44 50 54 55 57 60 63 64 62 63 62 61 62 62 64 64 61 60 62 62 62 61 60 56 54 57 61 60 58 56 55 55 55 55 54 55 55 55
60 62 55 59 58 60 53 54 52 49 51 58 60 49 47 48 48 55 58 60 61 63 64 65 64 65 64 64 65 63 62 62 62 63 63 62 62 62 60 63 61 43 58 60 59 59 57 56 55 55 54 54 54 56
59 63 62 54 54 54 52 52 54 57 58 59 56 53 51 58 60 60 61 62 64 62 60 60 61 64 63 64 64 64 63 63 58 54 53 55 57 59 64 64 64 64 64 64 44 50 57 57 57 58 57 55 56 57
56 65 57 53 51 51 54 57 57 59 61 60 59 58 58 59 62 64 63 62 60 61 63 64 62 62 62 62 59 60 65 66 65 62 58 57 59 65 66 65 64 65 65 62 62 62 46 54 56 56 56 58 57 56
64 64 56 56 52 56 58 61 61 62 62 61 63 59 57 59 62 64 63 64 66 65 64 62 62 64 63 62 60 59 58 64 63 62 64 65 65 65 64 64 65 65 64 63 62 62 61 60 60 59 59 58 57 56
64 58 57 51 53 58 62 61 62 59 59 58 58 61 59 57 56 61 64 64 62 62 57 61 62 62 65 66 66 66 45 65 64 65 63 64 64 65 66 67 67 66 64 63 63 63 62 60 60 60 60 59 58 59
60 61 60 56 55 54 59 58 56 55 57 56 57 59 59 59 55 63 65 67 65 65 63 64 66 67 64 64 64 64 53 66 58 45 44 41 37 44 56 66 68 66 64 64 64 63 61 60 60 59 59 58 58 58
MSLP
1018.82 1018.75 1018.84 1018.98 1018.90 1018.90 1019.29 1019.44 1019.64 1019.70 1019.72 1019.66 1019.81 1019.85 1019.96 1020.17 1020.35 1019.76 1020.16 1019.96 1019.09 1017.77 1017.98 1018.22 1018.10 1017.76 1017.59 1017.17 1016.38 1017.37 1017.74 1018.26 1018.72 1019.40 1019.72 1018.80 1017.47 1015.28 1014.73 1013.38 1012.93 1012.52 1011.85 1010.79 1010.93 1010.05 1009.85 1010.37 1008.99 1008.34 1008.49 1008.32 1008.50 1008.21
1018.07 1018.06 1018.19 1018.53 1018.34 1018.62 1019.10 1019.29 1019.32 1019.43 1019.52 1019.58 1019.75 1019.88 1019.96 1020.19 1020.41 1020.29 1019.97 1020.36 1019.94 1018.70 1018.00 1018.66 1018.42 1018.35 1018.03 1017.79 1017.37 1017.38 1017.38 1018.22 1019.46 1020.55 1020.94 1020.30 1018.94 1017.46 1015.90 1014.59 1013.79 1012.84 1011.67 1010.49 1010.62 1010.82 1012.40 1012.40 1011.47 1010.61 1009.87 1009.02 1008.74 1008.74
1017.30 1017.23 1017.49 1017.74 1018.00 1018.65 1018.67 1018.82 1018.96 1019.08 1019.33 1019.46 1019.61 1019.82 1019.97 1020.24 1020.46 1020.33 1020.08 1020.03 1019.49 1018.68 1018.08 1018.09 1017.53 1017.80 1018.13 1018.25 1018.12 1017.61 1017.49 1018.87 1020.48 1021.59 1022.03 1021.54 1020.41 1019.36 1017.67 1015.93 1014.96 1013.63 1012.88 1012.43 1011.96 1012.61 1013.59 1013.43 1012.82 1011.70 1010.42 1009.63 1009.41 1009.36
1016.76 1016.67 1017.03 1017.23 1017.67 1018.20 1018.44 1018.62 1018.73 1018.82 1018.99 1019.22 1019.52 1019.80 1019.96 1020.21 1020.48 1020.43 1019.28 1019.59 1019.33 1018.65 1017.15 1016.67 1017.46 1017.41 1017.52 1017.80 1017.97 1017.97 1018.13 1018.93 1020.55 1021.67 1021.90 1021.64 1020.82 1020.11 1019.03 1018.09 1017.26 1016.82 1014.71 1013.96 1013.96 1014.52 1014.58 1014.43 1013.97 1013.22 1011.53 1010.76 1010.17 1010.25
1015.97 1016.19 1016.34 1016.78 1017.43 1017.90 1018.01 1018.29 1018.38 1018.60 1018.82 1019.03 1019.39 1019.78 1020.03 1020.27 1020.48 1020.15 1020.11 1019.95 1019.92 1019.32 1017.53 1016.31 1016.70 1016.66 1017.00 1017.39 1017.58 1017.84 1018.15 1018.62 1019.84 1020.74 1021.34 1021.25 1020.96 1020.80 1020.02 1019.17 1018.64 1017.76 1016.27 1015.93 1015.37 1016.01 1015.96 1015.19 1014.58 1013.73 1012.65 1011.91 1011.65 1010.94
1015.24 1015.74 1015.94 1016.47 1017.10 1017.52 1017.76 1017.96 1018.20 1018.41 1018.67 1018.99 1019.35 1019.76 1020.09 1020.33 1020.64 1020.25 1020.15 1019.88 1019.85 1019.71 1018.75 1016.29 1016.48 1016.48 1016.55 1016.82 1016.82 1017.18 1017.54 1018.08 1019.20 1019.55 1019.99 1020.32 1020.56 1020.64 1020.05 1019.38 1019.12 1018.11 1017.33 1016.91 1016.53 1016.45 1016.32 1015.46 1014.88 1014.26 1013.48 1012.70 1012.34 1012.41
1014.64 1015.35 1015.64 1016.41 1016.88 1017.29 1017.59 1017.76 1018.00 1018.32 1018.66 1019.06 1019.45 1019.85 1020.20 1020.42 1020.03 1020.11 1020.39 1020.08 1020.18 1020.01 1019.18 1016.82 1015.73 1015.93 1016.17 1016.13 1015.98 1016.37 1017.17 1016.90 1017.64 1018.22 1019.09 1019.44 1019.97 1019.96 1020.09 1020.03 1019.38 1018.32 1017.70 1017.17 1016.93 1016.40 1016.36 1015.64 1015.19 1014.75 1014.34 1013.48 1013.36 1013.09
1014.66 1014.93 1015.36 1016.35 1016.59 1017.04 1017.45 1017.57 1017.85 1018.28 1018.76 1019.20 1019.55 1019.95 1020.32 1020.65 1020.67 1020.31 1020.30 1020.72 1020.38 1019.94 1019.66 1017.64 1015.78 1015.41 1015.73 1014.65 1014.86 1015.57 1015.28 1015.76 1016.40 1016.84 1018.11 1018.88 1019.47 1019.79 1020.02 1020.02 1019.43 1018.74 1017.70 1017.32 1017.18 1016.71 1016.41 1015.96 1015.62 1015.44 1015.29 1014.57 1013.95 1013.76
1014.59 1014.94 1015.52 1016.31 1016.55 1016.83 1017.39 1017.66 1017.95 1018.40 1018.87 1019.31 1019.73 1020.10 1020.03 1020.28 1020.12 1020.22 1020.52 1020.77 1020.68 1020.59 1019.23 1017.98 1016.55 1014.66 1015.40 1014.88 1014.90 1015.11 1015.10 1015.20 1015.88 1015.98 1017.13 1018.11 1019.11 1020.07 1020.08 1019.65 1019.30 1019.04 1018.76 1018.59 1017.58 1016.84 1016.70 1016.66 1016.26 1015.96 1015.96 1015.41 1015.29 1015.38
1014.47 1015.08 1015.61 1016.33 1016.48 1016.82 1017.27 1017.78 1018.16 1018.56 1019.07 1019.47 1019.60 1019.59 1019.41 1019.75 1020.07 1020.33 1020.68 1020.63 1020.40 1020.00 1019.32 1018.04 1016.64 1015.31 1015.36 1014.71 1014.36 1014.71 1014.90 1014.93 1015.66 1016.18 1016.69 1017.59 1019.31 1019.96 1019.65 1019.34 1019.14 1019.13 1019.04 1018.78 1017.88 1017.54 1017.43 1017.17 1016.73 1016.58 1016.58 1016.46 1016.33 1016.79
1014.99 1015.38 1015.83 1016.33 1016.44 1016.81 1017.29 1017.89 1018.38 1018.85 1019.41 1019.25 1019.02 1019.26 1020.00 1020.14 1020.20 1019.81 1019.61 1019.66 1019.40 1019.05 1018.49 1017.52 1016.47 1015.37 1015.88 1014.99 1014.82 1015.29 1015.03 1015.29 1015.72 1016.42 1016.20 1017.29 1018.79 1019.49 1019.29 1019.02 1018.78 1018.49 1018.60 1018.86 1019.26 1018.84 1018.21 1017.99 1017.86 1017.34 1017.00 1017.09 1017.32 1016.90
1015.17 1015.55 1016.02 1016.37 1016.46 1016.84 1017.47 1018.08 1018.42 1018.15 1018.03 1018.37 1018.50 1019.55 1019.99 1019.91 1019.40 1018.93 1018.53 1018.50 1018.27 1017.51 1017.29 1017.07 1016.58 1015.91 1015.84 1016.12 1015.44 1015.65 1015.52 1015.90 1016.22 1016.88 1016.71 1017.51 1018.49 1019.36 1019.38 1019.14 1018.97 1018.85 1018.71 1018.58 1018.47 1018.72 1018.98 1018.94 1018.48 1018.09 1017.77 1017.43 1016.98 1016.98
1015.52 1015.84 1016.14 1016.21 1016.49 1016.94 1017.59 1018.11 1018.42 1018.45 1018.38 1018.43 1018.56 1018.75 1018.85 1018.68 1017.95 1017.10 1016.65 1016.79 1016.70 1016.53 1016.86 1016.76 1016.44 1015.74 1016.13 1015.94 1015.55 1015.58 1015.87 1016.49 1017.00 1017.40 1017.20 1017.46 1018.29 1019.06 1019.40 1019.40 1019.29 1019.14 1019.11 1019.03 1018.91 1019.20 1019.46 1019.45 1019.20 1018.95 1018.72 1018.29 1017.58 1017.22
1015.64 1015.94 1016.16 1016.34 1016.69 1017.14 1017.76 1018.28 1018.69 1018.75 1018.63 1017.99 1017.76 1017.63 1017.39 1016.36 1015.55 1014.38 1014.14 1014.20 1014.66 1015.41 1016.28 1016.77 1016.75 1016.54 1016.67 1016.38 1016.11 1016.29 1017.02 1017.10 1017.28 1017.38 1017.58 1017.70 1018.20 1018.64 1019.30 1019.57 1019.39 1019.28 1019.35 1019.23 1019.17 1019.28 1019.12 1018.75 1018.77 1018.97 1019.08 1018.90 1018.60 1018.28
1015.77 1016.03 1016.30 1016.62 1016.93 1017.41 1017.96 1018.54 1018.89 1018.66 1018.22 1017.40 1016.77 1015.66 1014.74 1013.85 1013.43 1013.43 1013.58 1013.68 1014.82 1015.49 1016.06 1017.18 1017.63 1017.67 1017.35 1017.11 1016.69 1016.85 1017.24 1017.40 1017.48 1017.46 1017.63 1017.96 1018.48 1018.78 1019.05 1019.29 1019.41 1019.57 1019.40 1019.36 1019.32 1019.16 1018.93 1018.83 1018.77 1018.82 1018.78 1018.71 1018.73 1018.57
1015.91 1016.06 1016.40 1016.74 1017.14 1017.63 1018.15 1018.85 1019.10 1018.79 1017.93 1017.12 1016.16 1014.69 1013.65 1013.24 1012.85 1012.97 1013.06 1013.99 1015.18 1015.97 1016.58 1017.24 1017.52 1017.47 1017.33 1017.13 1016.59 1016.61 1016.89 1016.96 1016.94 1017.22 1017.57 1018.32 1018.68 1018.85 1018.98 1019.08 1019.22 1019.61 1019.78 1019.73 1019.62 1019.53 1019.28 1019.28 1019.18 1019.14 1019.16 1019.16 1019.30 1019.46
1015.98 1016.03 1016.89 1017.14 1017.49 1017.96 1018.47 1018.63 1018.77 1018.11 1017.04 1016.05 1014.79 1013.92 1013.38 1012.94 1012.72 1012.82 1013.58 1013.84 1014.95 1015.76 1015.89 1016.57 1016.73 1016.94 1017.31 1016.64 1016.41 1016.53 1016.85 1016.76 1016.96 1017.52 1017.91 1018.68 1018.90 1019.08 1019.31 1019.33 1019.46 1019.77 1019.84 1020.01 1019.99 1020.07 1019.96 1019.86 1019.64 1019.38 1019.47 1019.70 1019.57 1019.80
1015.86 1016.82 1017.18 1017.55 1017.87 1018.44 1018.26 1018.16 1017.62 1016.84 1015.96 1015.03 1014.55 1014.12 1014.07 1013.16 1013.44 1013.70 1014.17 1014.53 1014.97 1014.96 1014.91 1014.94 1015.34 1015.79 1016.32 1016.52 1016.68 1016.99 1017.23 1017.80 1017.80 1018.28 1018.80 1019.33 1019.45 1019.50 1019.46 1019.63 1020.16 1020.54 1020.42 1020.35 1020.38 1020.33 1020.32 1020.09 1019.84 1019.78 1019.92 1019.92 1019.65 1019.55
1016.08 1016.70 1017.43 1017.70 1017.76 1017.61 1017.47 1017.44 1017.20 1016.21 1015.55 1015.51 1015.38 1015.32 1014.88 1015.48 1015.67 1015.54 1015.54 1015.84 1015.55 1015.08 1015.07 1015.10 1015.79 1016.48 1016.85 1016.91 1017.02 1017.28 1017.46 1017.84 1018.51 1019.18 1019.75 1020.07 1020.10 1020.25 1020.53 1020.57 1020.78 1020.85 1021.00 1021.13 1020.93 1020.61 1020.45 1020.65 1020.49 1020.17 1019.88 1019.84 1019.52 1019.45
1016.86 1017.38 1017.83 1017.97 1017.91 1017.25 1016.68 1016.30 1016.40 1016.01 1016.25 1016.73 1016.78 1016.56 1016.91 1017.19 1017.26 1017.06 1016.88 1016.59 1016.13 1015.93 1016.41 1016.95 1017.64 1018.03 1017.78 1018.06 1018.09 1018.34 1018.64 1018.73 1018.95 1019.42 1020.02 1020.50 1020.80 1020.95 1021.02 1021.14 1021.18 1021.32 1020.97 1021.09 1020.97 1021.41 1020.55 1020.35 1020.35 1020.34 1020.30 1020.32 1020.03 1019.87
1017.40 1017.80 1018.12 1018.03 1017.38 1017.08 1016.72 1015.99 1015.42 1015.61 1016.21 1016.97 1017.49 1017.51 1018.07 1018.39 1018.57 1018.63 1018.40 1017.75 1017.64 1018.22 1018.52 1018.81 1018.78 1019.16 1019.21 1019.26 1019.21 1019.21 1019.55 1019.44 1019.53 1019.95 1020.62 1021.08 1021.28 1021.31 1021.38 1021.36 1021.43 1021.23 1021.05 1021.05 1020.99 1021.26 1021.29 1021.08 1020.90 1020.74 1020.43 1020.25 1020.41 1020.19
1017.11 1017.68 1017.76 1017.83 1017.11 1016.67 1016.53 1015.77 1015.60 1015.40 1015.76 1016.67 1017.21 1017.73 1018.70 1019.62 1020.20 1020.51 1020.35 1019.66 1020.47 1020.03 1019.79 1019.63 1019.68 1019.55 1019.73 1019.87 1020.00 1020.03 1020.30 1020.29 1020.51 1020.90 1021.19 1021.27 1020.91 1021.16 1021.48 1021.56 1021.47 1021.41 1021.47 1021.58 1021.53 1021.37 1021.20 1021.41 1021.68 1021.05 1020.81 1020.74 1020.34 1020.57
1017.20 1017.39 1017.12 1016.96 1016.55 1015.96 1015.20 1015.03 1014.81 1014.70 1014.91 1015.80 1016.47 1017.69 1019.09 1020.02 1020.97 1021.32 1021.58 1021.63 1021.47 1020.95 1020.13 1020.29 1020.27 1020.32 1020.18 1020.32 1020.39 1020.49 1020.53 1020.38 1020.37 1020.75 1021.02 1021.13 1021.43 1021.68 1021.66 1021.82 1021.84 1021.68 1021.43 1021.56 1021.65 1021.53 1021.50 1021.96 1021.49 1021.34 1020.85 1020.63 1020.53 1020.43
1016.97 1016.47 1015.78 1015.26 1015.01 1014.46 1014.22 1013.90 1013.98 1014.03 1014.67 1014.99 1015.93 1017.38 1018.91 1019.43 1020.28 1021.06 1022.02 1022.16 1021.68 1020.76 1020.66 1020.84 1020.44 1020.16 1020.29 1020.37 1020.12 1020.51 1020.66 1020.64 1020.69 1021.00 1021.27 1021.20 1021.22 1021.75 1022.03 1021.95 1021.89 1021.85 1022.03 1021.97 1021.82 1021.68 1021.57 1021.50 1021.67 1021.11 1020.93 1020.80 1020.71 1020.57
1016.11 1015.65 1014.96 1014.56 1013.72 1013.43 1013.23 1013.43 1013.62 1013.67 1014.36 1015.15 1016.08 1017.62 1018.59 1018.78 1019.53 1020.86 1021.88 1022.26 1021.67 1021.17 1020.91 1021.11 1020.53 1020.33 1019.92 1020.00 1020.29 1020.77 1021.26 1020.78 1020.57 1020.76 1021.52 1021.62 1021.58 1021.49 1021.61 1021.97 1022.23 1022.33 1022.24 1022.20 1022.20 1022.16 1022.22 1022.09 1021.79 1021.55 1021.29 1021.02 1020.93 1020.90
1015.05 1015.01 1014.70 1013.95 1013.67 1013.41 1013.37 1013.48 1013.82 1014.02 1014.35 1015.34 1016.60 1017.35 1017.76 1018.12 1018.78 1019.86 1020.91 1021.61 1021.24 1020.88 1020.93 1020.95 1020.82 1020.46 1020.43 1020.73 1020.56 1020.70 1021.19 1021.38 1021.37 1021.17 1021.80 1021.85 1021.88 1021.76 1021.98 1022.17 1022.32 1022.52 1022.52 1022.40 1022.39 1022.34 1022.17 1022.01 1021.81 1021.75 1021.39 1021.10 1021.09 1021.08
1014.30 1014.28 1014.59 1014.70 1014.44 1014.22 1014.29 1014.53 1014.50 1014.69 1015.08 1015.38 1016.12 1016.51 1017.05 1017.55 1018.38 1019.43 1020.32 1020.92 1020.67 1020.86 1021.04 1021.14 1021.08 1020.80 1020.70 1021.02 1021.37 1021.70 1021.76 1021.83 1021.81 1022.03 1022.38 1022.49 1022.59 1022.72 1022.60 1022.50 1022.56 1022.82 1022.79 1022.60 1022.49 1022.40 1022.21 1022.00 1021.84 1021.77 1021.64 1021.42 1021.25 1021.08
1014.21 1014.22 1014.28 1014.76 1014.88 1015.03 1015.06 1015.28 1015.52 1015.81 1016.20 1016.47 1016.22 1016.63 1017.15 1017.60 1018.35 1019.22 1019.66 1020.39 1020.67 1020.84 1020.97 1021.12 1021.21 1021.08 1021.17 1021.49 1021.59 1021.81 1022.11 1022.35 1022.56 1022.55 1022.57 1022.72 1022.91 1022.92 1023.06 1022.89 1023.11 1023.46 1023.26 1023.02 1022.89 1022.43 1022.37 1022.26 1022.05 1021.80 1021.57 1021.35 1021.15 1020.97
1014.26 1014.64 1014.85 1015.22 1015.50 1015.98 1016.46 1016.42 1016.45 1016.87 1017.40 1016.79 1016.62 1017.09 1017.84 1018.39 1018.68 1019.05 1019.63 1020.03 1020.34 1020.59 1020.68 1020.92 1021.20 1021.41 1021.61 1021.87 1021.99 1021.92 1022.09 1021.96 1022.03 1022.12 1022.08 1022.02 1022.14 1022.56 1022.76 1022.70 1022.64 1022.62 1022.55 1022.42 1022.93 1022.73 1022.62 1022.48 1022.20 1021.85 1021.49 1021.30 1021.05 1020.84
1014.72 1014.91 1015.13 1015.82 1016.12 1016.57 1017.14 1017.38 1017.25 1017.63 1017.69 1017.62 1017.67 1018.05 1018.30 1018.72 1019.03 1019.39 1019.63 1019.87 1020.02 1019.99 1020.05 1020.38 1020.87 1020.97 1021.00 1021.17 1021.62 1021.93 1022.05 1022.02 1021.79 1021.80 1021.78 1021.96 1022.14 1022.34 1022.24 1022.11 1022.03 1021.97 1022.02 1022.03 1021.80 1021.63 1021.90 1021.82 1021.25 1021.29 1021.06 1020.63 1020.39 1020.17
1014.70 1014.91 1015.52 1016.07 1016.79 1017.39 1017.59 1017.58 1017.66 1017.55 1017.37 1017.34 1017.25 1017.46 1017.88 1018.38 1018.88 1019.18 1019.25 1019.28 1019.32 1019.53 1019.73 1020.05 1020.40 1020.56 1020.77 1020.91 1021.16 1021.56 1021.90 1022.29 1022.47 1022.57 1022.59 1022.48 1022.33 1022.07 1021.89 1021.75 1021.61 1021.52 1021.53 1021.50 1021.39 1021.17 1021.04 1020.94 1020.61 1020.43 1020.30 1020.23 1020.05 1019.88
1014.65 1014.86 1015.28 1016.05 1017.02 1017.67 1017.69 1017.29 1017.21 1017.27 1017.29 1017.39 1017.46 1017.64 1018.03 1017.97 1017.75 1018.11 1018.73 1019.03 1019.13 1019.10 1019.40 1019.60 1019.86 1020.24 1020.58 1020.77 1021.09 1021.27 1022.02 1021.77 1022.11 1022.32 1022.50 1022.60 1022.52 1022.10 1021.59 1021.18 1021.04 1021.18 1021.21 1021.07 1020.88 1020.73 1020.60 1020.53 1020.29 1020.22 1019.97 1019.78 1019.70 1019.52
1014.73 1014.91 1015.34 1015.97 1016.51 1016.90 1017.01 1017.05 1017.00 1017.03 1017.09 1016.99 1016.99 1017.11 1017.16 1017.13 1016.96 1017.05 1018.18 1018.39 1018.38 1018.52 1019.03 1019.40 1019.60 1020.00 1020.60 1020.83 1021.13 1021.41 1021.83 1021.78 1022.25 1023.03 1023.18 1023.47 1023.78 1023.41 1022.64 1021.17 1020.90 1021.26 1021.10 1020.88 1020.63 1020.43 1020.27 1020.29 1020.20 1020.23 1020.06 1019.88 1019.64 1019.41
Wind_Speed
15 10 10 11 9 9 8 6 6 5 4 4 1 4 6 7 3 4 2 4 6 3 6 5 3 3 5 2 2 5 4 3 1 4 3 5 5 3 7 10 8 11 10 9 11 13 14 13 3 8 8 5 5 6
13 11 9 10 9 9 7 7 6 6 5 5 4 5 6 8 5 5 3 2 3 5 6 1 4 6 5 4 4 3 7 4 2 2 1 3 4 3 8 4 12 11 12 7 9 7 7 7 8 3 2 4 6 7
13 12 8 9 8 8 9 8 7 6 6 6 7 6 6 9 6 5 3 2 4 3 5 5 7 9 10 10 7 5 3 5 3 4 2 1 5 1 3 9 6 14 8 7 6 7 5 5 5 6 4 7 8 8
13 11 9 8 11 9 8 7 7 6 6 8 8 7 7 10 8 6 0 2 3 2 5 7 5 5 4 7 10 11 10 1 7 4 2 3 4 3 2 4 3 5 7 9 5 5 4 5 6 8 5 8 9 9
13 11 11 12 12 11 8 8 7 7 7 9 9 8 8 10 8 5 2 1 2 5 4 2 5 5 7 7 7 7 7 7 2 3 3 3 1 3 1 3 1 5 1 3 3 3 3 3 5 5 5 8 7 8
12 11 11 13 11 10 8 7 7 8 7 9 10 9 8 9 10 2 2 3 3 2 4 2 4 6 6 7 7 5 5 4 3 2 1 3 6 2 2 2 6 7 2 1 1 3 6 3 5 7 7 9 10 9
11 11 13 12 10 9 7 7 7 6 10 10 10 9 8 9 7 1 4 4 1 1 2 3 3 7 3 4 6 5 6 3 3 3 1 1 2 2 2 3 12 8 7 5 2 7 3 9 5 8 8 7 9 10
12 13 14 11 10 9 8 8 8 10 11 11 11 9 8 6 4 3 2 4 4 1 2 3 2 5 1 4 4 2 4 5 3 3 3 3 3 3 3 9 11 12 12 10 4 6 5 5 9 11 10 11 12 13
11 14 13 10 9 9 8 9 11 13 13 13 12 11 5 3 2 2 8 6 0 3 2 1 3 2 2 2 2 4 3 1 2 4 5 1 5 4 6 9 10 10 8 6 3 7 8 7 7 10 11 12 12 11
14 13 11 10 10 10 10 12 14 14 14 14 8 4 3 2 16 11 2 3 3 3 4 3 2 2 4 1 3 2 1 1 1 4 3 4 2 5 7 8 7 6 5 8 6 10 8 7 8 9 11 9 8 6
13 11 10 9 11 12 12 15 16 17 10 4 3 2 2 3 2 2 2 3 3 3 4 4 4 2 3 4 1 2 0 0 2 2 2 3 3 7 8 10 9 8 10 7 5 5 7 8 7 8 9 9 7 9
11 10 9 9 11 12 15 18 19 7 4 3 5 4 2 2 2 3 2 2 3 1 5 2 2 2 3 2 3 3 1 2 3 1 1 2 6 8 7 10 11 11 12 12 13 12 11 11 10 10 10 9 10 10
9 8 9 9 11 14 18 19 10 6 6 2 2 3 3 3 3 4 4 3 3 3 4 5 3 2 4 4 1 2 1 2 2 2 2 3 8 8 8 7 9 10 12 13 14 14 12 13 12 11 11 11 11 12
8 8 8 9 11 17 18 18 7 3 2 2 3 2 4 4 5 4 4 2 3 5 7 3 3 1 4 1 1 2 3 1 2 1 2 4 5 7 7 7 6 8 9 11 12 12 13 15 15 13 11 9 9 11
6 8 9 9 13 16 15 16 3 2 2 3 3 4 7 3 1 1 2 3 5 4 6 5 3 1 2 2 1 3 4 2 1 2 4 6 5 5 8 6 6 4 5 6 7 9 11 12 12 13 13 13 13 13
14 12 4 13 14 15 15 10 2 2 2 3 4 5 2 2 3 4 4 5 4 6 5 3 2 3 2 1 3 3 4 2 3 6 7 8 6 4 3 3 5 6 4 4 6 7 7 8 9 9 10 10 11 11
10 3 9 13 14 16 14 4 3 4 4 4 5 6 4 2 3 5 2 5 6 4 2 3 4 3 3 3 2 4 3 8 8 8 7 8 4 5 3 3 2 2 3 7 7 7 6 5 4 3 6 6 7 7
3 8 14 16 12 10 3 3 3 4 6 5 4 1 3 4 3 5 5 3 1 0 1 3 2 2 4 3 3 7 9 8 8 8 7 6 4 2 2 6 10 7 7 8 6 5 6 6 5 4 4 2 4 3
10 12 16 13 2 2 4 4 3 3 4 6 5 4 6 9 7 5 5 4 3 3 1 3 5 4 4 6 10 8 7 7 7 8 8 8 10 11 9 11 9 8 8 7 6 6 5 5 5 5 4 3 5 5
12 15 10 3 2 3 3 2 2 1 2 3 3 5 3 5 4 7 8 6 5 4 6 5 6 7 8 8 8 9 7 6 7 8 9 8 8 9 8 6 5 2 2 3 2 5 4 4 3 4 5 5 5 5
6 5 3 3 1 3 3 3 1 3 4 4 2 3 4 6 6 6 6 6 7 5 5 5 6 7 7 7 6 7 7 6 6 7 8 6 5 5 4 3 3 4 4 4 4 4 1 4 4 5 6 5 5 6
4 10 3 3 3 3 3 2 1 2 3 4 2 4 4 3 4 6 5 7 3 4 4 6 6 5 7 8 7 8 7 9 9 7 7 5 4 5 5 5 4 4 4 4 4 4 4 5 6 6 5 6 3 5
11 3 2 3 3 4 2 3 2 3 3 4 4 5 4 3 2 1 4 3 2 2 5 8 8 7 7 7 7 8 6 4 5 5 3 4 4 4 3 4 4 4 4 5 5 5 5 1 1 6 5 4 4 4
2 3 4 3 4 1 3 2 1 2 3 4 4 6 4 3 3 4 3 2 0 3 5 8 5 5 5 4 5 6 4 3 3 4 2 1 2 4 3 3 3 4 4 4 5 5 5 5 4 5 6 6 6 7
1 4 1 3 1 0 2 3 3 3 5 6 6 4 3 2 3 3 2 2 3 3 4 0 1 2 3 4 4 5 2 4 4 3 3 3 2 3 2 3 3 3 3 5 5 5 5 6 6 6 8 8 9 10
4 4 5 5 3 4 4 3 4 5 6 5 5 3 3 3 3 4 4 6 5 5 5 1 2 1 4 4 4 4 5 3 2 1 4 3 4 5 5 5 5 3 4 5 5 6 7 6 6 7 8 8 3 8
3 5 4 3 2 1 3 3 3 4 6 4 3 3 2 2 4 4 5 6 5 4 2 2 2 2 3 4 4 4 3 3 5 6 4 4 5 5 5 6 6 6 6 6 5 6 7 7 8 8 9 8 8 8
4 4 5 4 5 5 4 4 5 4 3 2 1 3 2 3 4 5 5 8 5 4 2 2 3 3 3 3 3 4 5 5 5 4 5 5 4 4 4 3 5 0 5 5 6 5 5 5 7 7 8 8 7 7
4 3 4 6 5 5 5 5 4 3 2 3 1 3 4 3 6 7 5 6 6 5 5 6 5 4 4 3 3 4 5 4 5 6 5 5 5 5 3 3 3 3 3 0 8 4 4 6 7 7 8 7 5 5
4 2 4 5 4 5 5 4 4 3 2 3 4 6 7 7 5 4 5 5 6 6 6 6 6 6 4 4 6 5 4 3 4 3 3 4 4 3 2 3 3 4 3 5 6 5 10 8 7 6 6 7 7 7
3 3 4 4 4 4 5 5 5 5 5 5 5 6 7 5 5 5 5 4 4 5 7 8 7 5 4 5 6 7 6 4 4 1 2 4 4 5 5 6 6 5 5 6 7 6 6 7 7 7 8 8 9 7
2 3 5 5 4 4 2 3 2 3 4 4 4 4 6 5 6 7 7 7 7 7 7 7 8 7 5 5 5 4 2 6 5 4 3 4 6 7 7 6 4 4 6 6 6 5 5 7 7 8 9 10 9 10
6 6 7 6 5 5 5 3 3 3 3 3 4 6 6 4 6 4 6 8 7 7 8 8 6 6 7 7 8 7 4 4 2 3 8 8 8 7 7 6 3 4 6 6 5 5 5 6 7 9 10 12 12 10
Wind_Direction
256 246 258 259 250 203 217 227 232 229 243 238 225 181 158 149 124 306 80 6 314 308 133 199 177 179 159 242 337 108 204 202 146 207 201 225 253 268 270 263 178 206 213 199 233 229 242 5 211 260 42 68 42 33
249 238 242 245 232 194 223 218 218 216 227 210 180 170 162 159 143 280 129 306 309 281 46 214 249 262 278 353 324 179 341 347 61 234 267 315 256 260 283 264 195 234 228 248 216 208 38 353 350 32 320 60 55 51
243 232 225 229 203 193 219 217 208 206 217 202 181 178 165 161 159 301 108 169 231 255 168 214 200 202 226 237 258 294 76 78 117 111 184 276 253 185 251 241 277 216 232 256 168 141 63 15 11 321 28 65 67 60
245 220 207 205 172 214 215 212 204 200 206 193 177 174 166 157 157 262 121 104 272 283 279 124 142 198 198 204 229 242 287 83 109 160 172 235 256 11 310 330 251 314 247 215 192 132 339 59 16 322 45 46 59 65
231 212 194 180 177 208 208 206 191 195 199 182 167 164 162 156 172 261 57 244 324 317 329 82 182 195 194 196 226 234 247 241 134 182 171 226 231 245 238 268 83 296 5 235 170 101 302 30 14 11 27 53 37 25
218 200 186 170 188 195 198 193 189 184 189 168 151 153 157 155 184 189 215 184 199 310 275 221 88 177 186 212 225 207 202 198 152 250 29 169 197 270 251 162 331 334 312 9 120 141 240 244 40 33 28 47 41 40
195 183 169 168 189 189 182 178 175 177 158 150 139 145 149 163 215 310 14 30 130 234 292 242 181 148 234 210 179 170 173 234 215 119 11 116 339 10 30 11 319 2 350 27 8 234 147 39 48 48 28 25 54 54
176 170 154 171 178 173 170 164 157 147 139 138 135 133 132 153 282 260 159 170 234 351 303 285 171 194 216 212 171 187 206 198 48 95 140 36 6 34 42 1 360 12 353 49 21 85 79 59 56 49 39 33 30 32
165 144 150 185 166 151 153 150 144 138 135 130 128 139 152 207 198 94 128 144 7 304 292 232 277 87 185 193 246 179 260 263 139 83 81 25 29 30 307 0 16 20 8 315 339 48 67 67 64 54 47 48 38 11
147 146 160 172 151 146 148 147 141 134 131 138 175 190 174 146 113 134 174 156 192 200 225 243 234 208 279 180 152 246 169 354 148 70 205 110 92 68 48 58 36 48 27 358 33 31 24 44 44 53 49 58 43 13
146 154 154 161 150 148 149 146 137 121 133 207 182 118 74 102 178 199 167 223 157 214 205 235 278 280 139 265 89 327 30 67 115 67 318 71 84 67 40 48 51 55 85 74 78 69 53 51 47 50 45 50 61 49
150 146 154 158 151 151 151 145 147 191 158 107 93 105 138 203 212 229 182 165 219 264 167 213 222 245 116 280 250 167 187 221 112 143 144 98 102 98 74 70 66 66 62 63 62 61 62 59 58 60 56 38 42 55
140 146 155 152 155 157 151 157 165 76 165 133 181 144 178 168 214 210 189 193 219 202 170 174 183 203 165 227 209 210 85 73 117 80 83 53 111 129 112 96 85 78 74 73 86 92 81 76 66 59 52 39 51 54
143 142 145 152 159 152 156 164 140 177 256 217 171 172 223 193 241 212 230 226 153 123 147 160 150 52 12 295 329 97 58 96 90 160 153 145 126 127 133 122 108 88 78 75 75 70 65 65 73 78 76 70 53 42
125 129 128 150 150 150 155 162 139 334 268 239 217 239 211 277 322 28 52 153 73 104 135 110 67 104 196 142 233 129 149 112 174 156 106 122 139 138 141 150 141 109 71 69 57 57 55 53 56 59 55 57 60 57
135 146 99 137 142 144 145 145 188 273 245 241 237 257 214 254 108 87 56 95 109 119 102 78 118 197 111 165 180 138 123 149 132 95 107 129 137 142 125 165 174 135 110 74 49 28 47 44 44 49 52 55 58 54
201 90 141 132 132 135 151 166 196 230 252 224 223 225 276 15 59 89 109 73 121 143 138 150 171 164 152 197 88 46 57 106 107 110 90 83 104 120 144 236 230 109 65 60 62 52 36 26 7 39 46 36 46 57
68 135 133 132 139 141 209 223 245 240 236 232 239 147 286 53 58 59 73 77 86 280 209 55 147 143 53 47 77 108 91 77 75 77 72 85 79 112 113 95 82 91 75 60 46 49 44 17 22 18 328 13 273 116
139 143 148 159 134 220 204 210 230 281 21 9 17 4 30 66 53 63 53 41 37 17 7 41 50 46 71 71 100 108 96 99 97 91 85 67 66 80 77 84 81 73 63 45 17 11 11 13 3 355 15 356 343 353
117 137 137 95 307 253 243 203 189 239 67 72 67 27 51 45 19 48 38 25 29 48 40 44 39 38 63 58 57 67 73 97 119 109 101 91 89 82 68 60 59 84 60 1 63 357 348 328 19 341 23 343 329 337
145 144 148 314 270 336 315 306 95 50 108 70 145 76 88 57 35 22 20 351 47 22 71 55 66 69 56 60 62 75 64 55 70 106 118 106 91 94 86 65 26 19 8 29 9 108 228 25 14 2 343 16 353 346
108 155 160 205 224 194 250 229 343 94 92 135 142 60 59 58 27 15 0 45 70 57 64 66 59 91 83 61 61 61 86 95 97 110 114 154 80 61 44 20 21 47 71 51 18 6 30 36 2 335 356 348 323 53
150 171 178 181 217 198 170 168 199 138 123 111 138 93 70 77 83 195 70 28 67 302 88 57 79 75 91 93 91 84 79 90 102 96 95 71 77 44 57 63 32 8 354 55 1 11 0 329 122 322 345 333 344 335
180 209 221 198 213 145 161 128 93 97 93 85 62 89 63 72 127 86 68 5 268 152 107 51 32 131 131 142 96 84 69 47 95 108 56 320 103 97 12 15 357 1 13 337 336 346 1 10 291 339 353 341 349 343
35 355 324 302 8 205 91 82 86 103 89 92 95 101 106 183 94 91 118 203 191 179 148 77 65 62 5 102 115 102 35 328 3 40 83 329 338 215 210 25 30 18 353 338 338 349 347 339 327 338 324 327 345 331
68 41 8 16 39 23 19 51 52 46 92 77 73 122 147 130 93 86 150 185 213 166 169 126 17 22 100 26 11 42 52 5 325 30 61 359 359 347 356 354 8 39 3 349 343 334 323 323 324 327 319 326 268 292
65 69 74 35 347 66 108 72 39 51 37 60 115 122 133 93 85 88 117 168 175 160 193 296 308 291 83 92 83 50 39 55 43 67 73 39 29 19 2 7 10 16 336 344 346 350 341 339 350 355 348 340 339 337
57 25 65 41 67 25 62 48 38 42 76 12 237 64 67 62 110 132 149 163 187 152 176 155 185 140 95 63 45 109 113 113 115 117 126 108 77 65 41 38 46 195 317 9 350 358 11 2 353 347 346 351 350 352
65 70 86 62 73 63 39 26 37 54 32 298 88 93 102 79 121 139 144 159 176 184 170 162 148 146 135 107 107 134 150 160 116 113 100 97 100 95 75 53 39 26 360 344 183 264 334 309 320 330 330 328 338 348
85 6 101 56 53 53 45 2 59 80 54 46 110 130 126 129 116 116 151 172 190 202 187 173 165 188 168 153 140 142 141 164 156 131 90 61 54 33 336 321 317 304 304 301 305 315 212 246 272 246 267 299 304 309
114 110 91 70 85 85 81 102 121 128 114 113 125 128 134 142 162 179 198 197 175 171 175 172 182 184 178 170 161 164 146 157 135 139 332 334 323 322 319 316 302 299 305 304 301 298 320 317 324 327 332 333 338 318
89 108 129 113 124 135 195 166 124 132 138 150 152 162 163 202 197 169 177 177 185 189 177 187 180 176 191 168 171 141 349 140 162 200 258 314 335 338 325 321 313 321 323 320 311 302 308 319 340 348 343 351 342 339
118 109 108 117 140 179 170 199 190 173 208 224 222 212 213 231 237 165 160 196 192 184 176 188 186 161 160 178 165 146 187 179 92 315 277 271 275 290 294 286 351 329 325 339 341 326 316 340 340 349 349 350 348 345